TimeCST,TemperatureF,Dew PointF,Humidity,Sea Level PressureIn,VisibilityMPH,Wind Direction,Wind SpeedMPH,Gust SpeedMPH,PrecipitationIn,Events,Conditions,WindDirDegrees,DateUTC
12:53 AM,28.0,17.1,63,30.38,10.0,NNW,10.4,-,N/A,,Overcast,340,2013-03-06 06:53:00
1:08 AM,28.4,17.6,64,30.35,10.0,NNW,15.0,19.6,N/A,,Overcast,340,2013-03-06 07:08:00
1:53 AM,28.0,17.1,63,30.39,10.0,NNW,13.8,-,N/A,,Overcast,340,2013-03-06 07:53:00
2:53 AM,27.0,17.1,66,30.39,10.0,NNW,12.7,-,N/A,,Overcast,330,2013-03-06 08:53:00
3:53 AM,27.0,18.0,69,30.40,10.0,North,11.5,-,N/A,,Overcast,360,2013-03-06 09:53:00
4:53 AM,27.0,17.1,66,30.42,10.0,Variable,5.8,-,N/A,,Overcast,0,2013-03-06 10:53:00
5:34 AM,24.8,15.8,69,30.39,10.0,NNW,6.9,-,N/A,,Scattered Clouds,330,2013-03-06 11:34:00
5:53 AM,24.1,16.0,71,30.43,10.0,NNW,6.9,-,N/A,,Clear,340,2013-03-06 11:53:00
6:53 AM,23.0,16.0,74,30.45,10.0,NNW,6.9,-,N/A,,Clear,340,2013-03-06 12:53:00
7:53 AM,25.0,16.0,69,30.45,10.0,North,10.4,-,N/A,,Clear,350,2013-03-06 13:53:00
8:53 AM,27.0,17.1,66,30.46,10.0,NNE,12.7,-,N/A,,Clear,20,2013-03-06 14:53:00
9:53 AM,27.0,17.1,66,30.46,10.0,North,12.7,-,N/A,,Clear,10,2013-03-06 15:53:00
10:28 AM,28.4,19.4,69,30.42,10.0,North,6.9,-,N/A,,Mostly Cloudy,10,2013-03-06 16:28:00
10:53 AM,30.0,18.0,61,30.46,10.0,NNE,5.8,-,N/A,,Scattered Clouds,20,2013-03-06 16:53:00
11:53 AM,30.9,19.0,61,30.45,10.0,NE,4.6,-,N/A,,Clear,40,2013-03-06 17:53:00
12:53 PM,33.1,19.0,56,30.43,10.0,NE,4.6,-,N/A,,Clear,40,2013-03-06 18:53:00
1:53 PM,32.0,19.0,59,30.41,10.0,East,3.5,-,N/A,,Clear,100,2013-03-06 19:53:00
2:53 PM,35.1,19.9,54,30.39,10.0,East,4.6,-,N/A,,Clear,90,2013-03-06 20:53:00
3:53 PM,37.0,19.9,50,30.38,10.0,Calm,Calm,-,N/A,,Clear,0,2013-03-06 21:53:00
4:53 PM,34.0,19.9,56,30.36,10.0,East,3.5,-,N/A,,Clear,100,2013-03-06 22:53:00
5:53 PM,33.1,19.9,59,30.35,10.0,ESE,4.6,-,N/A,,Clear,110,2013-03-06 23:53:00
6:53 PM,28.9,19.9,69,30.35,10.0,East,5.8,-,N/A,,Clear,90,2013-03-07 00:53:00
7:53 PM,28.0,19.0,69,30.34,10.0,East,4.6,-,N/A,,Clear,90,2013-03-07 01:53:00
8:53 PM,28.0,19.0,69,30.35,10.0,ESE,3.5,-,N/A,,Clear,120,2013-03-07 02:53:00
9:53 PM,26.1,18.0,71,30.33,10.0,ESE,6.9,-,N/A,,Clear,110,2013-03-07 03:53:00
10:53 PM,26.1,18.0,71,30.33,10.0,ESE,6.9,-,N/A,,Clear,120,2013-03-07 04:53:00
11:53 PM,25.0,18.0,75,30.33,10.0,ESE,6.9,-,N/A,,Clear,110,2013-03-07 05:53:00